Regional Weather Roundup
Issued by NWS

Home | Current Version | Previous Version | Text Only | Print | Product List | Glossary Off
Versions: 1 2 3 4 5 6 7 8 9 10 11 12 13 14 15 16 17 18 19 20 21 22 23 24 25 26 27 28 29 30 31 32 33 34 35 36 37 38 39 40 41 42 43 44 45 46 47 48 49 50

000
ASUS45 KCYS 190910
RWRWY

WYOMING REGIONAL WEATHER ROUNDUP
NATIONAL WEATHER SERVICE CHEYENNE WY
200 AM MST MON FEB 19 2018

NOTE:  "FAIR" INDICATES FEW OR NO CLOUDS BELOW 12,000 FEET
WITH NO SIGNIFICANT WEATHER AND/OR OBSTRUCTIONS TO VISIBILITY.

WYZ001-191000-
YELLOWSTONE NATIONAL PARK

CITY           SKY/WX    TMP DP  RH WIND       PRES   REMARKS
LK YELLOWSTONE   N/A      4   1  88 CALM      29.42F
W YELLOWSTONE  NOT AVBL

$$
WYZ002>013-054>058-071-098>099-191000-
NORTHERN WYOMING

CITY           SKY/WX    TMP DP  RH WIND       PRES   REMARKS
JACKSON        FLURRIES  15  11  83 N3        29.44R
CODY           FLURRIES  -2  -8  76 N12G20    29.77F WCI -20
GREYBULL       CLOUDY     3  -1  83 N7        29.83F WCI  -9
WORLAND        CLOUDY     4  -1  80 N9        29.83F WCI -10
SHERIDAN       CLOUDY     1  -2  87 N3        29.92S
BUFFALO        CLOUDY     1  -4  79 NW7       29.83R WCI -12
GILLETTE       CLOUDY     1  -4  79 N12       29.87R WCI -16
HULETT         LGT SNOW   3   0  85 MISG      29.90R
NEWCASTLE      LGT SNOW   9   5  85 SE5       29.84S WCI   0

$$
WYZ014>020-022>026-101>103-191000-
CENTRAL WYOMING

CITY           SKY/WX    TMP DP  RH WIND       PRES   REMARKS
BIG PINEY      LGT SNOW  19  17  92 CALM      29.42F FOG
PINEDALE       LGT SNOW  19  18  93 S5        29.44F WCI  13
DUBOIS         NOT AVBL
LANDER         LGT SNOW   3  -1  83 N6        29.68F FOG     WCI  -8
RIVERTON       LGT SNOW   2  -4  76 E12       29.68F WCI -15
CASPER         FOG       -1  -4  87 NE12      29.76F VSB 3/4 WCI -18
DOUGLAS        LGT SNOW   2  -2  83 NW8       29.79S VSB 3/4 WCI -12

$$
WYZ021-027>030-104>119-191000-
SOUTHERN WYOMING

CITY           SKY/WX    TMP DP  RH WIND       PRES   REMARKS
EVANSTON       LGT SNOW  20  18  92 NE6       29.41F VSB 3/4 WCI  12
ROCK SPRINGS   LGT SNOW   7   1  76 NE21G26   29.45F WCI -13
DIXON          FLURRIES  20  17  86 CALM      29.44S
RAWLINS        CLOUDY     3  -1  83 N9        29.51F FOG     WCI -12
SARATOGA       LGT SNOW   9   9 100 W17       29.47R WCI -10
LARAMIE        CLOUDY    13  13 100 SE21      29.48R WCI  -5
CHEYENNE       LGT SNOW   5   3  91 N13       29.64S FOG     WCI -12
TORRINGTON     CLOUDY     9   3  77 NE15      29.83R WCI  -8
PINE BLUFFS    CLOUDY     9   5  85 N17       29.72F WCI -10

$$



USA.gov is the U.S. government's official web portal to all federal, state and local government web resources and services.